Date String (YYYY-MM-DD hh:mm:ss) UTC,Instrument flags,absolute air pressure of the measurement (hPa),sample flow rate (lpm),inlet stack bypass flow (lpm),air temperature of the measurement (°C),ambient temperature measured by the external sensor (°C),aerosol sample conditioner tube jacket temperature (°C),OPC LED temperature (°C),internal box temperature (°C),relative humidity of the measurement (%),span deviation,mass concentration of particles derived from Lorenz-Mie calculation of OPC scattering (μg/m³),mass concentration of particles derived from Lorenz-Mie calculation of OPC scattering (μg/m³),mass concentration of particles derived from Lorenz-Mie calculation of OPC scattering (μg/m³)
DateTimeUTC,F1_M11,P_M11,Q1_M11,Q2_M11,T1_M11,T2_M11,T3_M11,T4_M11,T5_M11,U1_M11,ZSPAN_M11,X0_M11,X2_M11,X1_M11
2023-07-02 11:00:00,SystemResetWarning,0832.0,5.01,000.00,030.1,028.7,000.0,038.6,031.6,22.6,0000.0,0006.76,0004.01,0003.73
2023-07-02 11:01:00,SystemResetWarning,0832.1,4.99,000.00,030.1,028.7,000.0,038.6,031.6,22.5,0000.0,0006.71,0004.01,0003.73
2023-07-02 11:02:00,SystemResetWarning,0832.0,4.99,000.00,030.1,028.7,000.0,038.7,031.6,22.1,0000.0,0006.74,0004.01,0003.74
2023-07-02 11:03:00,SystemResetWarning,0832.1,4.99,000.00,030.1,027.0,000.0,038.5,031.5,22.0,0000.0,0006.89,0004.03,0003.75
2023-07-02 11:04:00,SystemResetWarning,0832.1,5.00,000.00,030.0,025.3,000.0,038.4,031.2,21.9,0000.0,0007.00,0004.03,0003.75
2023-07-02 11:05:00,SystemResetWarning,0832.1,5.00,000.00,029.8,025.0,000.0,038.3,030.8,21.7,0000.0,0006.96,0004.02,0003.74
2023-07-02 11:06:00,SystemResetWarning,0832.1,5.01,000.00,029.7,025.3,000.0,038.3,030.6,21.7,0000.0,0007.01,0004.03,0003.75
2023-07-02 11:07:00,SystemResetWarning,0832.1,5.00,000.00,029.6,025.8,000.0,038.3,030.7,21.6,0000.0,0006.55,0004.04,0003.76
2023-07-02 11:08:00,SystemResetWarning,0832.0,4.99,000.00,029.6,026.2,000.0,038.3,030.7,21.5,0000.0,0006.57,0004.03,0003.76
2023-07-02 11:09:00,SystemResetWarning,0832.1,4.99,000.00,029.5,026.5,000.0,038.3,030.8,21.8,0000.0,0006.45,0004.00,0003.76
2023-07-02 11:10:00,SystemResetWarning,0832.0,4.99,000.00,029.5,026.9,000.0,038.3,030.8,21.8,0000.0,0006.43,0004.01,0003.76
2023-07-02 11:11:00,SystemResetWarning,0832.0,5.01,000.00,029.5,027.1,000.0,038.2,030.9,22.3,0000.0,0006.16,0004.00,0003.77
2023-07-02 11:12:00,SystemResetWarning,0832.0,5.01,000.00,029.5,027.3,000.0,038.2,030.9,22.1,0000.0,0006.90,0003.99,0003.77
2023-07-02 11:13:00,SystemResetWarning,0832.0,4.99,000.00,029.5,027.5,000.0,038.2,030.9,22.1,0000.9,0007.61,0004.02,0003.79
2023-07-02 11:14:00,SystemResetWarning,0832.0,4.99,000.00,029.5,027.7,000.0,038.2,031.0,22.0,0001.7,0008.17,0004.07,0003.81
2023-07-02 11:15:00,SystemResetWarning,0832.0,5.00,000.00,029.5,027.8,000.0,038.2,031.0,22.0,0001.5,0009.13,0004.11,0003.82
2023-07-02 11:16:00,SystemResetWarning,0832.0,5.00,000.00,029.5,027.9,000.0,038.2,031.0,22.1,0001.7,0009.81,0004.16,0003.85
2023-07-02 11:17:00,SystemResetWarning,0832.0,5.01,000.00,029.5,028.0,000.0,038.2,031.0,22.2,0001.6,0009.97,0004.22,0003.87
2023-07-02 11:18:00,SystemResetWarning,0832.0,5.01,000.00,029.5,028.0,000.0,038.2,031.0,22.1,0002.1,0010.11,0004.26,0003.88
2023-07-02 11:19:00,SystemResetWarning,0832.0,5.00,000.00,029.6,028.1,000.0,038.2,031.1,21.6,0001.8,0010.44,0004.33,0003.90
2023-07-02 11:20:00,SystemResetWarning,0832.0,5.00,000.00,029.6,028.1,000.0,038.2,031.1,21.9,0001.8,0011.01,0004.40,0003.92
2023-07-02 11:21:00,SystemResetWarning,0832.1,4.99,000.00,029.6,028.2,000.0,038.2,031.1,22.1,0001.5,0011.04,0004.41,0003.94
2023-07-02 11:22:00,SystemResetWarning,0832.1,5.00,000.00,029.6,028.2,000.0,038.2,031.1,22.1,0000.2,0011.17,0004.46,0003.95
2023-07-02 11:23:00,SystemResetWarning,0832.1,5.01,000.00,029.6,028.2,000.0,038.2,031.1,22.0,0000.0,0011.24,0004.56,0003.98
2023-07-02 11:24:00,SystemResetWarning,0832.0,5.01,000.00,029.6,028.2,000.0,038.2,031.1,22.0,0000.0,0011.36,0004.64,0003.98
2023-07-02 11:25:00,SystemResetWarning,0832.1,5.00,000.00,029.6,028.3,000.0,038.2,031.2,21.9,0000.0,0011.23,0004.69,0003.99
2023-07-02 11:26:00,SystemResetWarning,0832.1,4.99,000.00,029.7,028.3,000.0,038.2,031.2,21.9,0000.0,0011.97,0004.71,0004.00
2023-07-02 11:27:00,SystemResetWarning,0832.1,4.99,000.00,029.7,028.3,000.0,038.2,031.2,22.0,0000.0,0011.54,0004.72,0004.02
2023-07-02 11:28:00,SystemResetWarning,0832.1,5.00,000.00,029.7,028.3,000.0,038.2,031.2,22.0,0000.0,0011.85,0004.72,0004.02
2023-07-02 11:29:00,SystemResetWarning,0832.1,5.01,000.00,029.7,028.3,000.0,038.2,031.2,22.0,0000.0,0011.82,0004.73,0004.04
2023-07-02 11:30:00,SystemResetWarning,0832.2,5.01,000.00,029.7,028.3,000.0,038.2,031.2,22.1,0000.0,0012.13,0004.79,0004.05
2023-07-02 11:31:00,SystemResetWarning,0832.2,5.01,000.00,029.7,028.3,000.0,038.2,031.2,22.1,0000.0,0012.25,0004.79,0004.06
2023-07-02 11:32:00,SystemResetWarning,0832.2,5.00,000.00,029.7,028.3,000.0,038.3,031.2,22.0,0000.0,0012.75,0004.86,0004.08
2023-07-02 11:33:00,SystemResetWarning,0832.2,4.98,000.00,029.7,028.3,000.0,038.3,031.2,22.0,0000.0,0013.67,0004.89,0004.08
2023-07-02 11:34:00,SystemResetWarning,0832.2,5.00,000.00,029.7,028.3,000.0,038.3,031.2,22.0,0000.0,0014.05,0004.88,0004.10
2023-07-02 11:35:00,SystemResetWarning,0832.2,5.00,000.00,029.7,028.3,000.0,038.3,031.2,21.9,0000.0,0014.04,0004.84,0004.11
2023-07-02 11:36:00,SystemResetWarning,0832.2,5.00,000.00,029.7,028.3,000.0,038.3,031.2,21.9,0000.0,0013.75,0004.77,0004.09
2023-07-02 11:37:00,SystemResetWarning,0832.2,5.01,000.00,029.7,028.3,000.0,038.3,031.2,21.8,0000.8,0012.24,0004.75,0004.08
2023-07-02 11:38:00,SystemResetWarning,0832.2,5.00,000.00,029.7,028.3,000.0,038.3,031.2,21.8,0000.9,0012.22,0004.77,0004.08
2023-07-02 11:39:00,SystemResetWarning,0832.2,5.00,000.00,029.8,028.4,000.0,038.3,031.3,21.7,0000.9,0012.34,0004.80,0004.09
2023-07-02 11:40:00,SystemResetWarning,0832.2,5.00,000.00,029.8,028.4,000.0,038.3,031.3,21.6,0001.2,0012.45,0004.80,0004.08
2023-07-02 11:41:00,SystemResetWarning,0832.1,5.00,000.00,029.8,028.4,000.0,038.3,031.3,21.6,0000.6,0012.16,0004.78,0004.08
2023-07-02 11:42:00,SystemResetWarning,0832.1,5.00,000.00,029.8,028.4,000.0,038.3,031.3,21.6,0000.0,0012.33,0004.80,0004.07
2023-07-02 11:43:00,SystemResetWarning,0832.1,5.00,000.00,029.8,028.4,000.0,038.3,031.3,21.5,0000.0,0012.15,0004.76,0004.06
2023-07-02 11:44:00,SystemResetWarning,0832.1,5.00,000.00,029.8,028.5,000.0,038.4,031.3,21.5,0000.0,0011.22,0004.71,0004.06
2023-07-02 11:45:00,SystemResetWarning,0832.1,5.00,000.00,029.8,028.5,000.0,038.4,031.3,21.4,0000.0,0010.68,0004.70,0004.06
2023-07-02 11:46:00,SystemResetWarning,0832.2,5.00,000.00,029.8,028.5,000.0,038.4,031.3,21.4,0000.1,0010.37,0004.74,0004.07
2023-07-02 11:47:00,SystemResetWarning,0832.2,5.00,000.00,029.8,028.5,000.0,038.4,031.3,21.4,0000.5,0010.88,0004.78,0004.08
2023-07-02 11:48:00,SystemResetWarning,0832.2,5.00,000.00,029.8,028.5,000.0,038.4,031.4,21.4,0000.2,0011.22,0004.82,0004.09
2023-07-02 11:49:00,SystemResetWarning,0832.2,5.00,000.00,029.9,028.5,000.0,038.4,031.4,21.4,0000.0,0011.05,0004.81,0004.09
2023-07-02 11:50:00,SystemResetWarning,0832.2,5.00,000.00,029.9,028.5,000.0,038.4,031.3,21.4,0000.0,0010.48,0004.79,0004.09
2023-07-02 11:51:00,SystemResetWarning,0832.2,5.00,000.00,029.9,028.5,000.0,038.4,031.4,21.3,0000.8,0010.42,0004.81,0004.10
2023-07-02 11:52:00,SystemResetWarning,0832.2,5.00,000.00,029.9,028.5,000.0,038.4,031.4,21.3,0001.6,0010.48,0004.81,0004.11
2023-07-02 11:53:00,SystemResetWarning,0832.2,5.00,000.00,029.9,028.5,000.0,038.4,031.4,21.2,0002.0,0010.20,0004.80,0004.13
2023-07-02 11:54:00,SystemResetWarning,0832.2,5.00,000.00,029.9,028.6,000.0,038.4,031.4,21.2,0002.1,0010.33,0004.82,0004.14
2023-07-02 11:55:00,SystemResetWarning,0832.2,5.00,000.00,029.9,028.6,000.0,038.5,031.4,21.1,0001.7,0010.71,0004.88,0004.16
2023-07-02 11:56:00,SystemResetWarning,0832.2,5.01,000.00,029.9,028.6,000.0,038.5,031.4,21.1,0001.8,0010.68,0004.87,0004.18
2023-07-02 11:57:00,SystemResetWarning,0832.2,4.99,000.00,029.9,028.6,000.0,038.5,031.4,21.1,0001.9,0011.32,0004.83,0004.18
2023-07-02 11:58:00,SystemResetWarning,0832.2,4.99,000.00,029.9,028.6,000.0,038.5,031.4,21.1,0002.0,0012.03,0004.86,0004.19
2023-07-02 11:59:00,SystemResetWarning,0832.3,4.99,000.00,029.9,028.6,000.0,038.5,031.4,21.1,0001.9,0011.78,0004.86,0004.20
